Location: Sternwarte Stuttgart
(48.7670°N, 9.1830°E)
Time: 23:05:07
(UTC+01:00)

ISS - All Passes

Search period start: 31 October 2014 00:00
Search period end: 10 November 2014 00:00
Orbit: 412 x 417 km, 51.6° (Epoch: 31 October)

Date Brightness Start Highest point End Pass type
(mag) Time Alt. Az. Time Alt. Az. Time Alt. Az.
31 Oct - 09:30:57 10° SSE 09:32:33 13° SE 09:34:10 10° ESE daylight
31 Oct - 11:05:25 10° SW 11:08:43 62° SSE 11:12:01 10° ENE daylight
31 Oct - 12:42:13 10° W 12:45:30 52° N 12:48:47 10° ENE daylight
31 Oct - 14:19:09 10° WNW 14:22:28 62° NNE 14:25:48 10° E daylight
31 Oct - 15:55:57 10° WNW 15:59:06 40° SSW 16:02:15 10° SE daylight
01 Nov - 10:16:27 10° SW 10:19:37 42° SSE 10:22:47 10° ENE daylight
01 Nov - 11:52:57 10° W 11:56:15 60° NNW 11:59:34 10° ENE daylight
01 Nov - 13:29:57 10° WNW 13:33:14 53° N 13:36:31 10° E daylight
01 Nov - 15:06:42 10° WNW 15:10:00 60° SSW 15:13:18 10° SE daylight
01 Nov - 16:44:41 10° WSW 16:46:08 12° SW 16:47:36 10° SSW daylight
02 Nov - 09:27:39 10° SSW 09:30:31 27° SE 09:33:25 10° E daylight
02 Nov - 11:03:40 10° WSW 11:07:00 76° NNW 11:10:21 10° ENE daylight
02 Nov - 12:40:41 10° WNW 12:43:56 49° N 12:47:12 10° E daylight
02 Nov - 14:17:27 10° WNW 14:20:48 85° SSW 14:24:09 10° ESE daylight
02 Nov - 15:54:40 10° W 15:57:08 19° SW 15:59:36 10° S daylight
03 Nov - 08:39:06 10° S 08:41:27 18° SE 08:43:48 10° E daylight
03 Nov - 10:14:25 10° WSW 10:17:45 81° SSE 10:21:05 10° ENE daylight
03 Nov - 11:51:20 10° W 11:54:36 49° N 11:57:52 10° ENE daylight
03 Nov - 13:28:12 10° WNW 13:31:32 73° NNE 13:34:52 10° ESE daylight
03 Nov - 15:05:05 10° W 15:08:02 29° SW 15:10:59 10° SSE daylight
04 Nov - 07:51:14 10° SSE 07:52:23 11° SE 07:53:33 10° ESE daylight
04 Nov - 09:25:13 10° SW 09:28:29 56° SSE 09:31:46 10° ENE daylight
04 Nov - 11:01:57 10° W 11:05:14 54° N 11:08:31 10° ENE daylight
04 Nov - 12:38:53 10° WNW 12:42:12 59° NNE 12:45:30 10° E daylight
04 Nov - 14:15:39 10° WNW 14:18:51 44° SSW 14:22:03 10° SE daylight
05 Nov - 08:36:09 10° SW 08:39:14 37° SSE 08:42:21 10° ENE daylight
05 Nov - 10:12:31 10° W 10:15:50 64° NNW 10:19:09 10° ENE daylight
05 Nov - 11:49:31 10° WNW 11:52:47 51° N 11:56:04 10° E daylight
05 Nov - 13:26:15 10° WNW 13:29:34 66° SSW 13:32:53 10° ESE daylight
05 Nov - 15:03:56 10° WSW 15:05:45 14° SW 15:07:33 10° S daylight
06 Nov - 07:47:14 10° SSW 07:50:00 25° SE 07:52:46 10° E daylight
06 Nov - 09:23:06 10° WSW 09:26:25 81° NNW 09:29:46 10° ENE daylight
06 Nov - 11:00:05 10° WNW 11:03:20 49° N 11:06:35 10° ENE daylight
06 Nov - 12:36:52 10° WNW 12:40:13 88° NNE 12:43:33 10° ESE daylight
06 Nov - 14:13:57 10° W 14:16:35 22° SW 14:19:11 10° SSE daylight
07 Nov - 06:58:40 10° S 07:00:47 16° SE 07:02:54 10° E daylight
07 Nov - 08:33:42 10° WSW 08:37:01 74° SSE 08:40:20 10° ENE daylight
07 Nov - 10:10:34 10° W 10:13:50 50° N 10:17:05 10° ENE daylight
07 Nov - 11:47:26 10° WNW 11:50:46 68° NNE 11:54:05 10° E daylight
07 Nov - 13:24:17 10° W 13:27:18 33° SW 13:30:20 10° SSE daylight
08 Nov - 07:44:23 10° SW 07:47:36 50° SSE 07:50:51 10° ENE daylight
08 Nov - 09:21:01 10° W 09:24:18 56° N 09:27:35 10° ENE daylight
08 Nov - 10:57:58 10° WNW 11:01:15 56° N 11:04:33 10° E daylight
08 Nov - 12:34:42 10° WNW 12:37:57 49° SSW 12:41:10 10° SE daylight
09 Nov - 06:55:12 10° SSW 06:58:13 33° SE 07:01:15 10° E daylight
09 Nov - 08:31:26 10° W 08:34:45 68° NNW 08:38:04 10° ENE daylight
09 Nov - 10:08:26 10° WNW 10:11:41 50° N 10:14:57 10° E daylight
09 Nov - 11:45:10 10° WNW 11:48:30 73° SSW 11:51:48 10° ESE daylight
09 Nov - 13:22:37 10° W 13:24:43 16° SW 13:26:49 10° S daylight
